Location: Newark
(45.5167°N, 11.1667°E)
Time: 22:41:07
(UTC+00:00)

Explorer 7 - Pass Details

Date: 22 December 2019
Orbit: 485 x 679 km, 50.3° (Epoch: 24 January)

Event Time Altitude Azimuth Distance (km) Brightness Sun altitude
Rises 10:46:52 0° 230° (SW) 2,821 10.9 20.8°
Reaches altitude 10° 10:49:06 10° 226° (SW) 1,954 10.3 20.8°
Maximum altitude 10:53:32 60° 148° (SSE) 729 8.3 20.9°
Drops below altitude 10° 10:58:14 10° 68° (ENE) 2,070 9.6 21.0°
Sets 11:00:40 0° 65° (ENE) 3,005 10.4 21.0°
